THOR 7                  
1 40613U 15022A   19261.34223141 -.00000012  00000-0  00000+0 0  9996
2 40613   0.0126 207.8154 0002529 329.1046 302.6117  1.00273445 16110
ARIANE 5 R/B            
1 40615U 15022C   19260.71823585  .00004572  00000-0  42757-3 0  9999
2 40615   5.9120 348.7936 7111309 147.2527 289.9691  2.52159631 38363